Powrót do katalogu

STARLINK-11094

AktywnyŁącznośćVLEO
NORAD 59714·PAYLOAD·🇺🇸 United States

Wystrzelony May 10, 2024 z Vandenberg Space Force Base

Loading…

Następne Przeloty (najbliższe 24 godziny)

TLE

ŚwieżeSource: CelesTrak SupGP

Epoka: Sep 14, 2026, 21:30 UTC

1 59714C 24088G   26257.89631944 -.00004105  00000+0 -33834-4 0  2577
2 59714  53.1574 113.5840 0001039  91.2712 101.5103 15.69697447    10

Śledź STARLINK-11094 w czasie rzeczywistym z AllMySat

Download on the App Store